Escondido, California, United States (92025)
Lat: 33.12N, Lon: 117.09W
Wx Zone: CAZ050
Local Info
Past Weather Observations for Yesterday

NOTE: This archive is for the closest National Weather Service station to Escondido. Information may differ from the station used for current weather conditions.

Click here for Long-term Archive

Time Weather Temperature Dewpoint Humidity Pressure Winds Precip Visibility
23:53
Overcast
70°F / 21°C 64°F / 18°C 83% 29.89 in
(1012 mb)
SE 4.6 mph
(SE 7 kph)
- 8SM
22:53
Overcast
70°F / 21°C 64°F / 18°C 83% 29.89 in
(1012 mb)
SSE 6.9 mph
(SSE 11 kph)
- 8SM
21:53
Overcast
70°F / 21°C 64°F / 18°C 83% 29.89 in
(1012 mb)
Calm - 8SM
20:53
Overcast
70°F / 21°C 64°F / 18°C 83% 29.89 in
(1012 mb)
S 3.5 mph
(S 6 kph)
- 8SM
19:53
Overcast
70°F / 21°C 64°F / 18°C 83% 29.86 in
(1011 mb)
S 3.5 mph
(S 6 kph)
- 9SM
18:53
Overcast
70°F / 21°C 64°F / 18°C 83% 29.86 in
(1011 mb)
SW 4.6 mph
(SW 7 kph)
- 8SM
18:31
Mostly Cloudy
70°F / 21°C 64°F / 18°C 83% 29.83 in
(1010 mb)
SSW 6.9 mph
(SSW 11 kph)
- 7SM
17:53
Clear
72°F / 22°C 64°F / 18°C 78% 29.83 in
(1010 mb)
SSW 8.1 mph
(SSW 13 kph)
- 8SM
17:08
Partly Cloudy
72°F / 22°C 64°F / 18°C 78% 29.83 in
(1010 mb)
SSW 5.8 mph
(SSW 9 kph)
- 8SM
17:00
Mostly Cloudy
72°F / 22°C 64°F / 18°C 78% 29.83 in
(1010 mb)
SSW 6.9 mph
(SSW 11 kph)
- 8SM
16:53
Partly Cloudy
72°F / 22°C 64°F / 18°C 78% 29.83 in
(1010 mb)
SSW 4.6 mph
(SSW 7 kph)
- 8SM
16:42
Mostly Cloudy
73°F / 23°C 64°F / 18°C 74% 29.86 in
(1011 mb)
Variable 4.6 mph
(Variable 7 kph)
- 8SM
15:53
Clear
73°F / 23°C 64°F / 18°C 74% 29.86 in
(1011 mb)
SW 9.2 mph
(SW 15 kph)
- 8SM
14:53
Clear
73°F / 23°C 63°F / 17°C 69% 29.86 in
(1011 mb)
SSW 9.2 mph
(SSW 15 kph)
- 9SM
13:53
Clear
73°F / 23°C 64°F / 18°C 74% 29.89 in
(1012 mb)
SSW 8.1 mph
(SSW 13 kph)
- 9SM
12:53
Clear
75°F / 24°C 64°F / 18°C 69% 29.89 in
(1012 mb)
W 5.8 mph
(W 9 kph)
- 9SM
12:31
Partly Cloudy
73°F / 23°C 64°F / 18°C 74% 29.92 in
(1013 mb)
Variable 4.6 mph
(Variable 7 kph)
- 8SM
11:53
Overcast
73°F / 23°C 64°F / 18°C 74% 29.92 in
(1013 mb)
W 9.2 mph
(W 15 kph)
- 7SM
11:13
Overcast
73°F / 23°C 64°F / 18°C 74% 29.92 in
(1013 mb)
SW 10.4 mph
(SW 17 kph)
- 8SM
10:53
Overcast
73°F / 23°C 64°F / 18°C 74% 29.92 in
(1013 mb)
SW 8.1 mph
(SW 13 kph)
- 8SM
10:34
Overcast
72°F / 22°C 64°F / 18°C 78% 29.92 in
(1013 mb)
Variable 5.8 mph
(Variable 9 kph)
- 8SM
10:24
Overcast
72°F / 22°C 64°F / 18°C 78% 29.92 in
(1013 mb)
SSW 6.9 mph
(SSW 11 kph)
- 8SM
10:12
Overcast
72°F / 22°C 64°F / 18°C 78% 29.92 in
(1013 mb)
Variable 5.8 mph
(Variable 9 kph)
- 8SM
09:53
Overcast
72°F / 22°C 64°F / 18°C 78% 29.92 in
(1013 mb)
Variable 4.6 mph
(Variable 7 kph)
- 8SM
08:53
Overcast
72°F / 22°C 64°F / 18°C 78% 29.95 in
(1014 mb)
Calm - 8SM
07:53
Overcast
70°F / 21°C 64°F / 18°C 83% 29.95 in
(1014 mb)
Variable 3.5 mph
(Variable 6 kph)
- 7SM
07:18
Overcast
70°F / 21°C 64°F / 18°C 83% 29.92 in
(1013 mb)
Calm - 7SM
06:53
Overcast
Fog And Mist
68°F / 20°C 64°F / 18°C 88% 29.92 in
(1013 mb)
Variable 3.5 mph
(Variable 6 kph)
- 6SM
05:53
Overcast
Fog And Mist
68°F / 20°C 64°F / 18°C 88% 29.92 in
(1013 mb)
S 3.5 mph
(S 6 kph)
- 6SM
04:53
Overcast
66°F / 19°C 64°F / 18°C 94% 29.89 in
(1012 mb)
Calm - 7SM
03:53
Overcast
66°F / 19°C 63°F / 17°C 88% 29.89 in
(1012 mb)
Calm - 8SM
03:25
Overcast
68°F / 20°C 63°F / 17°C 83% 29.89 in
(1012 mb)
Variable 3.5 mph
(Variable 6 kph)
- 8SM
02:53
Overcast
68°F / 20°C 63°F / 17°C 83% 29.89 in
(1012 mb)
SSW 3.5 mph
(SSW 6 kph)
- 9SM
02:09
Overcast
68°F / 20°C 63°F / 17°C 83% 29.89 in
(1012 mb)
Calm - 9SM
01:53
Overcast
68°F / 20°C 63°F / 17°C 83% 29.89 in
(1012 mb)
Variable 3.5 mph
(Variable 6 kph)
- 9SM
01:32
Overcast
68°F / 20°C 63°F / 17°C 83% 29.89 in
(1012 mb)
ENE 3.5 mph
(ENE 6 kph)
- 8SM
00:53
Overcast
68°F / 20°C 64°F / 18°C 88% 29.92 in
(1013 mb)
Calm - 8SM
Time Weather Temperature Dewpoint Humidity Pressure Winds Precip Visibility


Weather for websites

WeatherForYou.com, LLC is not responsible for any damages or problems caused by this service. Current weather conditions are obtained from the closest station including government and personal stations which may have varying degrees of accuracy. Weather forecasts are derived from the NOAA NDFD. Like all things, this site belongs to Jesus Christ... He just trusts us to maintain it. If you have any questions or comments email webmaster@weatherforyou.com

Copyright © 2015, WeatherForYou.com LLC. All rights reserved.